FALCON 9 DEB (48610 NORAD) Tracking and Keplerian Element Data

This shows tracking and keplerian element data for the satellite.

Feedback or suggestion? Click here.




ElementValue
Catalog48610
NameFALCON 9 DEB
Epoch Orbit1126
Epoch Day211.07810882
Epoch Year2021
RAAN141.9574
Inclination53.0308
Eccentricity0.0015521
Argument of Perigee152.8777
Mean Anonmoly207.3022
Mean Motion14.9799044
Decay Rate1.36E-06
L11 48610U 21041BK 21211.07810882 .00000136 00000-0 33598-4 0 9990
L22 48610 53.0308 141.9574 0015521 152.8777 207.3022 14.97990440 11265

Live tracking and technical data element details for FALCON 9 DEB (NORAD 48610). FALCON 9 DEB can be tracked NOW for your location showing map with azimuth and elevation plus other details from your city location.

Track the satellite on the map from your city or location and see movement details for azimuth, elevation, latitude, longitude, range, height, and movement on the map or in text.







IsCatalogInMostPopularTable: catalog: 48610, numindb: 19
Update: records affected: 1



GetName: 48610 FALCON 9 DEB

Hit Count: updated at: Sat, 31 Jul 2021 15:35:40 GMT